User: anonymous   Login
Location: Bas-Clignon
(44.2000°N, 6.6333°E)
Time: 01:12:12
(UTC+00:00)
Language:

Cosmos 468 Rocket - Orbit

View from above orbital plane
View from above orbital plane
View from above satellite
View from above satellite

Ground track
Ground track

The orbit data is extracted from the following two-line orbital elements,

1 05707U 71114B   24111.55586330  .00000865  00000-0  28422-3 0  9997
2 05707  74.0261 153.3637 0025263 328.4669  31.4970 14.39602445742088
Epoch (UTC): 20 April 2024 13:20:26
Eccentricity: 0.0025263
inclination: 74.0261°
perigee height: 742 km
apogee height: 778 km
right ascension of ascending node: 153.3637°
argument of perigee: 328.4669°
revolutions per day: 14.39602445
mean anomaly at epoch: 31.4970°
orbit number at epoch: 74208

The dashed part of the orbit path shows where the satellite is in the earth's shadow,  

DLR